[[{"header":{"parameterUnit":"m.s-1","parameterCategory":2,"la1":30.2992,"la2":30.254,"lo1":-89.0895,"lo2":-89.0443,"dy":0.0025,"dx":0.0025,"nx":19,"ny":19,"refTime":"2026-04-12T21:00:00:Z","depth":"0","parameterNumber":2,"parameterNumberName":"U-component_of_CURRENTS"},"data":[0,0,0,-0.1499,-0.15,-0.154,-0.154,-0.1512,-0.1512,0,0,0,0,0,0,0,0,0,0,0,-0.1475,-0.1475,-0.1499,-0.15,-0.154,-0.154,-0.1512,-0.1512,0,0,0,0,0,0,0,0,0,0,0,-0.1475,-0.1475,-0.1475,-0.1501,-0.154,-0.154,-0.1513,-0.1502,0,0,0,0,0,0,0,0,0,0,-0.1473,-0.1454,-0.1475,-0.1475,-0.1501,-0.154,-0.154,-0.1502,-0.1502,-0.1473,0,-0.1473,0,-0.1495,-0.1508,-0.1508,0,0,0,-0.1499,-0.1454,-0.1474,-0.1475,-0.1501,-0.154,-0.1522,-0.1503,-0.1503,-0.1472,-0.1473,-0.1473,-0.1495,-0.1508,-0.1508,-0.1389,-0.1388,0,0,-0.1497,-0.1472,-0.1474,-0.1474,-0.1503,-0.152,-0.1523,-0.1504,-0.1492,-0.1473,-0.1473,-0.1494,-0.1508,-0.1507,-0.1389,-0.1388,0,0,0,-0.1491,-0.147,-0.1493,-0.1474,-0.1489,-0.1522,-0.1524,-0.1493,-0.1503,-0.1473,-0.1494,-0.1507,-0.1507,-0.139,-0.1389,-0.1361,0,0,0,-0.149,-0.1468,-0.1491,-0.1476,-0.149,-0.1501,-0.1513,-0.1504,-0.1504,-0.1494,-0.1507,-0.1506,-0.1391,-0.139,-0.1364,-0.1325,0,0,0,-0.1474,-0.1466,-0.1471,-0.1474,-0.1495,-0.1502,-0.1511,-0.1505,-0.1516,-0.1508,-0.1506,-0.1392,-0.139,-0.1367,-0.133,-0.1205,0,0,0,-0.1449,-0.1418,-0.1469,-0.1438,-0.1495,-0.1473,-0.1512,-0.1495,-0.1482,-0.1507,-0.1391,-0.1389,-0.1368,-0.1333,-0.1209,-0.0947,-0.0905,0,0,-0.1392,-0.141,-0.1392,-0.144,-0.1393,-0.1468,-0.1421,-0.1431,-0.1437,-0.1394,-0.1392,-0.1363,-0.133,-0.1206,-0.0822,-0.0783,0,0,0,-0.1362,-0.1332,-0.1328,-0.132,-0.1343,-0.1345,-0.1378,-0.1385,-0.1361,-0.1422,-0.1327,-0.1305,-0.1228,-0.1078,-0.1047,-0.1,-0.1379,-0.1379,-0.138,-0.1209,-0.1241,-0.1189,-0.1215,-0.1217,-0.1253,-0.1249,-0.1256,-0.1296,-0.1274,-0.1257,-0.1106,-0.0947,-0.092,-0.0877,-0.1241,-0.1241,-0.1241,-0.1241,-0.1074,-0.1037,-0.1086,-0.1046,-0.109,-0.1072,-0.1124,-0.1158,-0.1108,-0.1185,-0.1112,-0.1025,-0.0884,-0.085,-0.1238,-0.1239,-0.1239,-0.1239,-0.124,-0.0945,-0.0936,-0.0935,-0.0916,-0.0913,-0.0979,-0.0919,-0.1001,-0.1034,-0.0995,-0.0771,-0.0769,-0.0755,-0.0943,-0.0942,-0.0942,-0.0941,-0.094,-0.094,-0.0817,-0.0822,-0.0776,-0.0783,-0.0781,-0.0783,-0.0802,-0.0736,-0.0654,-0.0673,-0.067,-0.0659,-0.1013,-0.1044,-0.0929,-0.0931,-0.0932,-0.0933,-0.0934,-0.0645,-0.0682,-0.0606,-0.0591,-0.0583,-0.0521,-0.0539,-0.031,-0.0237,-0.0122,-0.0203,-0.0474,-0.0435,-0.0458,-0.0472,-0.0216,-0.0216,-0.0216,-0.0216,-0.0542,-0.0553,-0.0459,-0.0423,-0.038,-0.0399,-0.0128,0.0024,0.0143,0.0194,0.0111,0.0075,0.0044,0.0103,0.0068,0.0061,0.0446,0.0447,0.0447,-0.0439,-0.0433,-0.0337,-0.0328,-0.0302,-0.0224,0.0011,0.0206,0.0418,0.0463,0.0123,0.0096,0.0016,-0.0036,0.0025,-0.0027,-0.0052,0,0]},{"header":{"parameterUnit":"m.s-1","parameterCategory":2,"la1":30.2992,"la2":30.254,"lo1":-89.0895,"lo2":-89.0443,"dy":0.0025,"dx":0.0025,"nx":19,"ny":19,"refTime":"2026-04-12T21:00:00:Z","depth":"0","parameterNumber":3,"parameterNumberName":"V-component_of_CURRENTS"},"data":[0,0,0,0.0161,0.0163,0.0269,0.027,0.0451,0.0452,0,0,0,0,0,0,0,0,0,0,0,0.0116,0.0116,0.0161,0.0163,0.0269,0.027,0.0451,0.0452,0,0,0,0,0,0,0,0,0,0,0,0.0116,0.0116,0.0117,0.0163,0.0269,0.027,0.045,0.0363,0,0,0,0,0,0,0,0,0,0,0.0256,0.0194,0.0116,0.0117,0.0163,0.0269,0.027,0.0359,0.0369,0.0409,0,0.0406,0,0.0429,0.0464,0.0464,0,0,0,0.0183,0.0185,0.0219,0.0117,0.0164,0.0269,0.0227,0.0364,0.0375,0.0422,0.0408,0.0415,0.0432,0.0465,0.0465,0.0469,0.0468,0,0,0.0177,0.014,0.0211,0.0225,0.0168,0.0223,0.023,0.0371,0.037,0.0409,0.042,0.0435,0.0466,0.0467,0.0471,0.0469,0,0,0,0.0146,0.0135,0.0165,0.0218,0.0232,0.0226,0.0234,0.0364,0.0375,0.0422,0.0437,0.0467,0.0469,0.0472,0.047,0.0351,0,0,0,0.0144,0.0117,0.0162,0.0142,0.0228,0.0291,0.0223,0.0365,0.0381,0.0437,0.0467,0.047,0.0473,0.0471,0.0357,0.0401,0,0,0,0.0116,0.0114,0.012,0.0139,0.0178,0.0289,0.0309,0.0369,0.0391,0.0464,0.0471,0.0474,0.0471,0.0362,0.0407,0.0584,0,0,0,0.0086,0.0059,0.0118,0.0092,0.0177,0.0197,0.0308,0.0342,0.0391,0.0468,0.0473,0.047,0.0364,0.0411,0.0584,0.0762,0.0776,0,0,0.0032,0.0051,0.0035,0.0091,0.0078,0.0186,0.0168,0.0284,0.036,0.0438,0.0438,0.0355,0.0408,0.0584,0.0594,0.0614,0,0,0,0.0005,-0.0008,-0.0002,0.0007,0.0049,0.0092,0.0183,0.0214,0.0267,0.0374,0.0329,0.0368,0.0484,0.0588,0.0602,0.0583,0.0457,0.0457,0.0457,-0.0115,-0.0083,-0.0111,-0.0073,-0.0056,0.002,0.0057,0.0117,0.0179,0.0156,0.0246,0.0274,0.0369,0.0386,0.0356,0.0169,0.0168,0.0168,0.0168,-0.0198,-0.0203,-0.0179,-0.0187,-0.0139,-0.0132,-0.0046,-0.0003,0.0129,0.0104,0.0222,0.0423,0.0397,0.0359,0.016,0.0161,0.0162,0.0163,0.0163,-0.0254,-0.0248,-0.0253,-0.0258,-0.0243,-0.018,0.0003,0.0053,0.0102,0.0165,0.0475,0.0479,0.0492,0.0282,0.0283,0.0284,0.0285,0.0285,0.0286,-0.029,-0.0294,-0.0307,-0.0308,-0.0285,-0.0135,0.0084,0.0263,0.0452,0.0453,0.0456,0.049,0.0315,0.0363,0.0299,0.0297,0.0295,0.0294,0.0293,-0.0308,-0.0314,-0.0328,-0.0313,-0.0183,0.0075,0.0288,0.0704,0.086,0.0968,0.0769,0.0645,0.0771,0.0759,0.082,0.0881,0.0881,0.0881,0.0881,-0.0314,-0.0323,-0.0303,-0.024,-0.0043,0.0195,0.0695,0.0995,0.1095,0.1073,0.0989,0.0894,0.0872,0.0996,0.0979,0.1041,0.1157,0.1156,0.1156,-0.031,-0.0309,-0.0269,-0.0205,0.0016,0.0414,0.084,0.1117,0.1193,0.1155,0.0921,0.091,0.0744,0.0711,0.0881,0.0859,0.0953,0,0]}],[{"header":{"parameterUnit":"m.s-1","parameterCategory":2,"la1":30.2992,"la2":30.254,"lo1":-89.0895,"lo2":-89.0443,"dy":0.0025,"dx":0.0025,"nx":19,"ny":19,"refTime":"2026-04-12T21:00:00:Z","depth":"2","parameterNumber":2,"parameterNumberName":"U-component_of_CURRENTS"},"data":[0,0,0,-0.1294,-0.1295,-0.1356,-0.1356,-0.1355,-0.1355,0,0,0,0,0,0,0,0,0,0,0,-0.1281,-0.1282,-0.1294,-0.1295,-0.1356,-0.1356,-0.1356,-0.1355,0,0,0,0,0,0,0,0,0,0,0,-0.1281,-0.1282,-0.1282,-0.1296,-0.1356,-0.1356,-0.1356,-0.1331,0,0,0,0,0,0,0,0,0,0,-0.1283,-0.1254,-0.1282,-0.1282,-0.1296,-0.1356,-0.1357,-0.1331,-0.1333,-0.1303,0,-0.1317,0,-0.1327,-0.1353,-0.1352,0,0,0,-0.1304,-0.1253,-0.1291,-0.1282,-0.1296,-0.1356,-0.1331,-0.1333,-0.1334,-0.1305,-0.1317,-0.1317,-0.1327,-0.1352,-0.1352,-0.1219,-0.1218,0,0,-0.13,-0.1268,-0.129,-0.1293,-0.1316,-0.1329,-0.1333,-0.1335,-0.1322,-0.1317,-0.1318,-0.1327,-0.1352,-0.1352,-0.122,-0.1219,0,0,0,-0.1285,-0.1265,-0.1306,-0.1292,-0.1305,-0.1331,-0.1335,-0.1323,-0.1343,-0.1318,-0.1327,-0.1352,-0.1351,-0.1222,-0.122,-0.1213,0,0,0,-0.1283,-0.1257,-0.1304,-0.1282,-0.1305,-0.1317,-0.1322,-0.1343,-0.1344,-0.1327,-0.1352,-0.1351,-0.1223,-0.1221,-0.1216,-0.1199,0,0,0,-0.1278,-0.1255,-0.127,-0.1281,-0.1306,-0.1319,-0.1339,-0.1344,-0.1347,-0.1352,-0.1351,-0.1224,-0.1221,-0.1219,-0.1203,-0.1094,0,0,0,-0.1234,-0.1215,-0.1268,-0.1239,-0.1305,-0.1286,-0.1339,-0.1327,-0.1325,-0.1352,-0.1223,-0.122,-0.122,-0.1206,-0.1098,-0.0948,-0.0918,0,0,-0.118,-0.1207,-0.1189,-0.1238,-0.1213,-0.1279,-0.1233,-0.1267,-0.1268,-0.1221,-0.1219,-0.1215,-0.1203,-0.1095,-0.0788,-0.0763,0,0,0,-0.1151,-0.1132,-0.1133,-0.1135,-0.1159,-0.1176,-0.1204,-0.1205,-0.1188,-0.1254,-0.116,-0.1151,-0.1084,-0.1,-0.0979,-0.1207,-0.1207,-0.1207,-0.1208,-0.1017,-0.1049,-0.1013,-0.1049,-0.1052,-0.1091,-0.1095,-0.1092,-0.1118,-0.1092,-0.1106,-0.0964,-0.0874,-0.0856,-0.1067,-0.1067,-0.1067,-0.1067,-0.1067,-0.0905,-0.0879,-0.0933,-0.091,-0.0967,-0.095,-0.0989,-0.1019,-0.0967,-0.1023,-0.0958,-0.0948,-0.0833,-0.1065,-0.1066,-0.1066,-0.1066,-0.1066,-0.1066,-0.0794,-0.0792,-0.0799,-0.0805,-0.0823,-0.0888,-0.0828,-0.0899,-0.0923,-0.0896,-0.0743,-0.0741,-0.0957,-0.0846,-0.0846,-0.0845,-0.0845,-0.0844,-0.0844,-0.0684,-0.0698,-0.067,-0.0697,-0.0705,-0.0711,-0.0728,-0.0672,-0.0647,-0.0683,-0.0681,-0.0888,-0.0895,-0.0939,-0.0835,-0.0837,-0.0838,-0.0839,-0.0839,-0.0535,-0.0575,-0.0521,-0.0516,-0.0514,-0.0436,-0.0473,-0.0328,-0.028,-0.0226,-0.0533,-0.0543,-0.0514,-0.0529,-0.0561,-0.0365,-0.0365,-0.0365,-0.0365,-0.045,-0.0463,-0.0393,-0.0355,-0.0299,-0.0301,-0.0072,-0.0076,-0.0161,-0.0302,-0.0306,-0.0363,-0.0381,-0.035,-0.0369,-0.0401,-0.0163,-0.0164,-0.0164,-0.0368,-0.0363,-0.0283,-0.0264,-0.0206,-0.0107,0.0063,0.0127,-0.0023,-0.017,-0.0414,-0.0323,-0.0419,-0.0443,-0.0409,-0.0435,-0.0492,0,0]},{"header":{"parameterUnit":"m.s-1","parameterCategory":2,"la1":30.2992,"la2":30.254,"lo1":-89.0895,"lo2":-89.0443,"dy":0.0025,"dx":0.0025,"nx":19,"ny":19,"refTime":"2026-04-12T21:00:00:Z","depth":"2","parameterNumber":3,"parameterNumberName":"V-component_of_CURRENTS"},"data":[0,0,0,-0.006,-0.0058,0.0073,0.0074,0.0267,0.0269,0,0,0,0,0,0,0,0,0,0,0,-0.0096,-0.0095,-0.006,-0.0058,0.0073,0.0074,0.0267,0.0269,0,0,0,0,0,0,0,0,0,0,0,-0.0096,-0.0095,-0.0094,-0.0057,0.0073,0.0074,0.0267,0.0166,0,0,0,0,0,0,0,0,0,0,0.0038,-0.0029,-0.0095,-0.0094,-0.0057,0.0073,0.0074,0.0162,0.0173,0.0209,0,0.0225,0,0.024,0.0281,0.0281,0,0,0,-0.0037,-0.0038,0.0015,-0.0094,-0.0056,0.0072,0.002,0.0168,0.018,0.0224,0.0228,0.0235,0.0243,0.0282,0.0283,0.031,0.0309,0,0,-0.0044,-0.0085,0.0006,0.0023,-0.0026,0.0016,0.0024,0.0175,0.0176,0.0229,0.0239,0.0246,0.0283,0.0284,0.0311,0.031,0,0,0,-0.0079,-0.009,-0.0041,0.0015,0.003,0.0019,0.0028,0.017,0.0191,0.0241,0.0249,0.0284,0.0286,0.0312,0.031,0.0227,0,0,0,-0.0082,-0.0111,-0.0045,-0.0069,0.0027,0.0091,0.0019,0.0181,0.0198,0.0248,0.0284,0.0288,0.0313,0.0311,0.0232,0.0247,0,0,0,-0.0101,-0.0114,-0.0096,-0.0071,-0.0023,0.0089,0.0119,0.0185,0.0202,0.0281,0.0288,0.0314,0.0311,0.0236,0.0253,0.0362,0,0,0,-0.0149,-0.0154,-0.0097,-0.0103,-0.0024,0.0022,0.0119,0.0164,0.022,0.0285,0.0313,0.031,0.0237,0.0256,0.0363,0.0281,0.0271,0,0,-0.0187,-0.016,-0.0164,-0.011,-0.0087,0.0005,0.0017,0.0135,0.0195,0.0272,0.0273,0.023,0.0253,0.0363,0.0142,0.0137,0,0,0,-0.0197,-0.0193,-0.0177,-0.0148,-0.0094,-0.0043,0.0054,0.0088,0.0146,0.0215,0.0204,0.0222,0.0295,0.0244,0.0239,0.0299,0.0299,0.03,0.03,-0.0289,-0.0248,-0.025,-0.019,-0.0162,-0.0078,-0.0038,0.0023,0.0086,0.0072,0.0132,0.0132,0.0066,0.0065,0.0081,0.008,0.008,0.008,0.0079,-0.0339,-0.0331,-0.0292,-0.0277,-0.0218,-0.02,-0.0109,-0.0066,0.0036,0.003,0.0106,0.0128,0.0055,0.0072,0.0074,0.0075,0.0075,0.0076,0.0076,-0.038,-0.0371,-0.0359,-0.0343,-0.0321,-0.0253,-0.0155,-0.0071,-0.0005,0.0037,0.011,0.011,0.018,0.0115,0.0115,0.0116,0.0116,0.0116,0.0117,-0.0421,-0.0407,-0.0414,-0.0398,-0.0382,-0.0292,-0.0145,-0.0057,0.0039,0.0059,0.0059,0.0148,0.0147,0.0186,0.0124,0.0123,0.0122,0.0121,0.0121,-0.0444,-0.0448,-0.0457,-0.0446,-0.0373,-0.0248,-0.0152,-0.0022,0.0094,0.0108,0.0095,0.0093,0.0157,0.0158,0.0198,0.0145,0.0145,0.0145,0.0145,-0.0467,-0.0468,-0.0465,-0.043,-0.0334,-0.0206,-0.0109,-0.0101,-0.003,-0.0028,-0.002,-0.0124,-0.0122,-0.0077,-0.007,-0.0035,-0.0149,-0.0149,-0.015,-0.0479,-0.0478,-0.0466,-0.0425,-0.0306,-0.0139,-0.0109,-0.0154,-0.0139,-0.0161,-0.0066,0.0125,-0.0014,-0.0015,0.0068,0.0073,0.0135,0,0]}],[{"header":{"parameterUnit":"m.s-1","parameterCategory":2,"la1":30.2992,"la2":30.254,"lo1":-89.0895,"lo2":-89.0443,"dy":0.0025,"dx":0.0025,"nx":19,"ny":19,"refTime":"2026-04-12T21:00:00:Z","depth":"4","parameterNumber":2,"parameterNumberName":"U-component_of_CURRENTS"},"data":[0,0,0,-0.0451,-0.0454,-0.0572,-0.0573,-0.0541,-0.0541,0,0,0,0,0,0,0,0,0,0,0,-0.04,-0.0401,-0.0451,-0.0455,-0.0572,-0.0573,-0.0541,-0.0541,0,0,0,0,0,0,0,0,0,0,0,-0.04,-0.0401,-0.0402,-0.0455,-0.0572,-0.0573,-0.0542,-0.0494,0,0,0,0,0,0,0,0,0,0,-0.04,-0.0387,-0.0401,-0.0402,-0.0456,-0.0572,-0.0573,-0.0493,-0.0497,-0.0441,0,-0.0473,0,-0.0514,-0.0536,-0.0536,0,0,0,-0.0437,-0.0385,-0.042,-0.0403,-0.0457,-0.0572,-0.0514,-0.0496,-0.05,-0.0445,-0.0473,-0.0474,-0.0514,-0.0536,-0.0535,-0.0489,-0.0489,0,0,-0.0431,-0.0411,-0.0418,-0.0423,-0.0501,-0.0511,-0.0518,-0.05,-0.0503,-0.0473,-0.0474,-0.0513,-0.0535,-0.0535,-0.0489,-0.0489,0,0,0,-0.0424,-0.0406,-0.0446,-0.0422,-0.0463,-0.0514,-0.0523,-0.0503,-0.0519,-0.0474,-0.0513,-0.0535,-0.0534,-0.0489,-0.0489,-0.0534,0,0,0,-0.0419,-0.0404,-0.0443,-0.043,-0.0465,-0.0511,-0.0526,-0.052,-0.052,-0.0513,-0.0535,-0.0533,-0.0489,-0.0489,-0.0533,-0.0538,0,0,0,-0.0392,-0.0401,-0.042,-0.0429,-0.0491,-0.0514,-0.0528,-0.0521,-0.0543,-0.0536,-0.0533,-0.0489,-0.0489,-0.0532,-0.0536,-0.0539,0,0,0,-0.0359,-0.0398,-0.042,-0.0474,-0.049,-0.0557,-0.0529,-0.0578,-0.0581,-0.0534,-0.0489,-0.0489,-0.0532,-0.0535,-0.0538,-0.0428,0,0,0,-0.0388,-0.0401,-0.0434,-0.0457,-0.0534,-0.0539,-0.058,-0.058,-0.0552,-0.0479,-0.048,-0.0534,-0.0536,-0.0539,-0.0432,0,0,0,0,-0.043,-0.0459,-0.0485,-0.0538,-0.0579,-0.06,-0.0611,-0.0593,-0.0567,-0.0559,-0.0522,-0.0521,-0.0522,-0.0455,-0.049,-0.049,-0.049,-0.049,-0.049,-0.0441,-0.0479,-0.0533,-0.058,-0.0611,-0.064,-0.0641,-0.0609,-0.0582,-0.0577,-0.055,-0.057,-0.05,-0.0548,-0.0548,-0.0548,-0.0548,-0.0548,-0.0549,-0.0484,-0.0507,-0.0556,-0.0617,-0.0635,-0.0654,-0.0639,-0.0632,-0.0592,-0.0571,-0.057,-0.0497,-0.0553,-0.0552,-0.0551,-0.0551,-0.055,-0.055,-0.055,-0.0475,-0.0485,-0.0534,-0.0595,-0.063,-0.0647,-0.0624,-0.0626,-0.0618,-0.0623,-0.0533,-0.0587,-0.0592,-0.0623,-0.0623,-0.0623,-0.0623,-0.0623,-0.0623,-0.0419,-0.047,-0.0494,-0.0562,-0.0576,-0.0585,-0.0604,-0.0591,-0.0613,-0.0554,-0.0628,-0.0594,-0.0591,-0.0594,-0.0624,-0.0623,-0.0623,-0.0623,-0.0623,-0.0386,-0.0394,-0.0429,-0.0446,-0.0465,-0.0461,-0.0513,-0.0511,-0.0498,-0.0488,-0.0511,-0.0517,-0.0484,-0.0484,-0.0482,-0.0479,-0.0477,-0.0476,0,-0.033,-0.0347,-0.0358,-0.0349,-0.0322,-0.0366,-0.0322,-0.0355,-0.0407,-0.0378,-0.0492,-0.0516,-0.052,-0.048,-0.0478,-0.0474,0,0,0,-0.0289,-0.0306,-0.0285,-0.0289,-0.0247,-0.0243,-0.03,-0.0288,-0.0404,-0.0396,-0.0443,-0.0452,-0.056,-0.0626,-0.0587,-0.0584,-0.0586,0,0]},{"header":{"parameterUnit":"m.s-1","parameterCategory":2,"la1":30.2992,"la2":30.254,"lo1":-89.0895,"lo2":-89.0443,"dy":0.0025,"dx":0.0025,"nx":19,"ny":19,"refTime":"2026-04-12T21:00:00:Z","depth":"4","parameterNumber":3,"parameterNumberName":"V-component_of_CURRENTS"},"data":[0,0,0,-0.0322,-0.0321,-0.0303,-0.0303,-0.0303,-0.0302,0,0,0,0,0,0,0,0,0,0,0,-0.0339,-0.0339,-0.0322,-0.0321,-0.0303,-0.0303,-0.0303,-0.0302,0,0,0,0,0,0,0,0,0,0,0,-0.0339,-0.0339,-0.0339,-0.0321,-0.0303,-0.0303,-0.0303,-0.0313,0,0,0,0,0,0,0,0,0,0,-0.0328,-0.0341,-0.0339,-0.0339,-0.0321,-0.0303,-0.0303,-0.0313,-0.0312,-0.0314,0,-0.0312,0,-0.0298,-0.0302,-0.0302,0,0,0,-0.0331,-0.0342,-0.033,-0.0339,-0.032,-0.0303,-0.0314,-0.0313,-0.0311,-0.0312,-0.0312,-0.0311,-0.0298,-0.0302,-0.0302,-0.0128,-0.0126,0,0,-0.0332,-0.0343,-0.0331,-0.0329,-0.0317,-0.0315,-0.0313,-0.0312,-0.0316,-0.0312,-0.0311,-0.0298,-0.0302,-0.0302,-0.013,-0.0128,0,0,0,-0.0328,-0.0344,-0.0332,-0.033,-0.032,-0.0314,-0.0313,-0.0316,-0.031,-0.031,-0.0298,-0.0302,-0.0302,-0.0132,-0.0129,-0.0063,0,0,0,-0.0329,-0.034,-0.0332,-0.034,-0.032,-0.0315,-0.0317,-0.0311,-0.031,-0.0298,-0.0302,-0.0302,-0.0134,-0.013,-0.0069,-0.0135,0,0,0,-0.034,-0.0341,-0.0338,-0.034,-0.0326,-0.0314,-0.0309,-0.0311,-0.0301,-0.0302,-0.0302,-0.0135,-0.0131,-0.0075,-0.0141,-0.0208,0,0,0,-0.0353,-0.0346,-0.0339,-0.0314,-0.0326,-0.0246,-0.0309,-0.0264,-0.0253,-0.0302,-0.0134,-0.0129,-0.0076,-0.0144,-0.0209,-0.0309,0,0,0,-0.0348,-0.0346,-0.0325,-0.0317,-0.0242,-0.0249,-0.0141,-0.0167,-0.0183,-0.0144,-0.0139,-0.0067,-0.0141,-0.0208,-0.0045,0,0,0,0,-0.0323,-0.031,-0.0283,-0.0241,-0.0184,-0.0124,-0.0102,-0.0065,-0.0015,-0.0155,0.0005,-0.0045,-0.0091,-0.0145,-0.0108,-0.0108,-0.0109,-0.011,-0.011,-0.0336,-0.029,-0.0241,-0.0171,-0.0111,-0.0015,0.0037,0.0096,0.0087,0.0155,0.0067,0.0129,0.0091,0.0183,0.0183,0.0184,0.0184,0.0184,0.0184,-0.0316,-0.0283,-0.0214,-0.0159,-0.0068,0.0021,0.0155,0.0181,0.0216,0.0232,0.0186,0.0005,0.0193,0.0191,0.019,0.0189,0.0188,0.0188,0.0187,-0.0322,-0.03,-0.0272,-0.0192,-0.0108,0.0001,0.0016,0.0106,0.0194,0.0189,0.0039,0.0121,0.0039,0.0139,0.0139,0.0138,0.0138,0.0137,0.0137,-0.0353,-0.0315,-0.0304,-0.0231,-0.0205,-0.0178,-0.0106,-0.0102,-0.0016,0.0035,0.0136,0.011,0.0111,0.0036,0.013,0.0131,0.0132,0.0133,0.0133,-0.0355,-0.0365,-0.0347,-0.034,-0.031,-0.0303,-0.0282,-0.0266,-0.0276,-0.0237,-0.0042,-0.0032,-0.0114,-0.0109,-0.0197,-0.0169,-0.017,-0.0171,0,-0.0378,-0.0374,-0.0382,-0.0392,-0.0403,-0.0371,-0.0417,-0.0407,-0.0289,-0.0251,-0.0246,-0.0024,-0.0015,-0.0106,-0.0104,-0.0204,0,0,0,-0.0387,-0.039,-0.0409,-0.0417,-0.0428,-0.042,-0.0424,-0.0413,-0.0287,-0.0344,-0.0199,-0.0192,-0.0088,0.0107,0.0003,0.0005,-0.0126,0,0]}]]